Weather History for Graham, TX

Change the Weather History Date:

Saturday, September 7, 2013

  Actual Average (KMWL) Record (KMWL)
Temperature  
Mean Temperature 86 °F -  
Max Temperature 97 °F 89 °F 102 °F (1998)
Min Temperature 76 °F 67 °F 54 °F (2011)
Cooling Degree Days 22    
Growing Degree Days 36 (Base 50)    
Moisture  
Dew Point 61 °F    
Average Humidity 45    
Maximum Humidity 62    
Minimum Humidity 28    
Precipitation  
Precipitation 0.00 in - - ()
Sea Level Pressure  
Sea Level Pressure 29.98 in    
Wind  
Wind Speed 3 mph (SSE)    
Max Wind Speed 10 mph    
Max Gust Speed 20 mph    
Visibility 10 miles    
Events Rain    
Averages and records for this station are not official NWS values.
T = Trace of Precipitation, MM = Missing Value Source: NWS Daily Summary

Daily Weather History Graph

Daily Weather History Graph

Search for Another Location

Airport:

Trip Planner

Search our weather history database for the weather conditions in past years. The results will help you decide how hot, cold, wet, or windy it might be!

Date:

Astronomy

Sep. 07, 2013 Rise Set
Actual Time 7:12 AM CDT 7:50 PM CDT
Civil Twilight 6:47 AM CDT 8:15 PM CDT
Nautical Twilight 6:18 AM CDT 8:45 PM CDT
Astronomical Twilight 5:48 AM CDT 9:15 PM CDT
Moon 9:18 AM CDT (9/7) 9:01 PM CDT (9/7)
Length of Visible Light 13h 28m
Length of Day
12h 38m
Waxing Crescent, 5% of the Moon is Illuminated
Sep 7
Waxing Crescent
Sep 12
First Quarter
Sep 19
Full
Sep 26
Last Quarter
Oct 4
New

Hourly Weather History & Observations

Time (CDT) Temp. Heat Index Dew Point Humidity Pressure Visibility Wind Dir Wind Speed Gust Speed Precip Events Conditions
12:15 AM 82.2 °F 82.6 °F 60.3 °F 47% 29.98 in 10.0 mi ESE 4.6 mph - N/A   Clear
12:35 AM 82.0 °F 82.4 °F 60.3 °F 47% 29.98 in 10.0 mi ESE 4.6 mph - N/A   Clear
12:55 AM 81.9 °F 82.2 °F 60.1 °F 47% 29.98 in 10.0 mi ESE 4.6 mph - N/A   Clear
1:15 AM 81.7 °F 82.2 °F 60.1 °F 48% 29.98 in 10.0 mi ESE 3.5 mph - N/A   Clear
1:35 AM 80.8 °F 81.4 °F 60.3 °F 49% 29.98 in 10.0 mi ESE 3.5 mph - N/A   Clear
1:55 AM 80.1 °F 81.0 °F 60.4 °F 51% 29.98 in 10.0 mi Calm Calm - N/A   Clear
2:15 AM 79.7 °F - 60.1 °F 51% 29.98 in 10.0 mi Calm Calm - N/A   Mostly Cloudy
2:35 AM 79.2 °F - 60.1 °F 52% 29.98 in 10.0 mi Calm Calm - N/A   Mostly Cloudy
2:55 AM 77.9 °F - 60.4 °F 55% 29.98 in 10.0 mi ESE 3.5 mph - N/A   Clear
3:15 AM 78.3 °F - 60.3 °F 54% 29.98 in 10.0 mi ESE 4.6 mph - N/A   Scattered Clouds
3:35 AM 78.4 °F - 60.1 °F 53% 29.98 in 10.0 mi Calm Calm - N/A   Clear
3:55 AM 77.5 °F - 60.1 °F 55% 29.98 in 10.0 mi Calm Calm - N/A   Clear
4:15 AM 77.0 °F - 59.9 °F 55% 29.98 in 10.0 mi SE 3.5 mph - N/A   Clear
4:35 AM 76.1 °F - 60.1 °F 57% 29.98 in 10.0 mi Calm Calm - N/A   Clear
4:55 AM 76.3 °F - 60.1 °F 57% 29.98 in 10.0 mi Calm Calm - N/A   Clear
5:15 AM 76.3 °F - 60.3 °F 57% 29.99 in 10.0 mi Calm Calm - N/A   Scattered Clouds
5:35 AM 77.2 °F - 60.4 °F 56% 29.99 in 10.0 mi Calm Calm - N/A   Overcast
5:55 AM 77.9 °F - 60.4 °F 55% 29.99 in 10.0 mi Calm Calm - N/A   Mostly Cloudy
6:15 AM 77.7 °F - 60.6 °F 55% 30.00 in 10.0 mi Calm Calm - N/A   Mostly Cloudy
6:35 AM 78.1 °F - 60.6 °F 55% 30.00 in 10.0 mi Calm Calm - N/A   Overcast
6:55 AM 77.9 °F - 60.8 °F 56% 30.00 in 10.0 mi Calm Calm - N/A   Mostly Cloudy
7:15 AM 77.0 °F - 61.3 °F 58% 30.01 in 10.0 mi Calm Calm - N/A   Overcast
7:35 AM 77.2 °F - 61.7 °F 59% 30.01 in 10.0 mi Calm Calm - N/A   Overcast
7:55 AM 77.4 °F - 63.3 °F 62% 30.02 in 10.0 mi Calm Calm - N/A   Overcast
8:15 AM 78.1 °F - 62.8 °F 59% 30.02 in 10.0 mi Calm Calm - N/A   Mostly Cloudy
8:35 AM 79.9 °F - 62.4 °F 55% 30.02 in 10.0 mi Calm Calm - N/A   Scattered Clouds
8:55 AM 80.6 °F 81.9 °F 63.0 °F 55% 30.02 in 10.0 mi Calm Calm - N/A   Scattered Clouds
9:15 AM 81.9 °F 82.9 °F 62.6 °F 52% 30.02 in 10.0 mi SSE 4.6 mph - N/A   Scattered Clouds
9:35 AM 83.3 °F 84.3 °F 62.6 °F 50% 30.03 in 10.0 mi SSW 3.5 mph - N/A   Scattered Clouds
9:55 AM 84.4 °F 85.0 °F 62.2 °F 47% 30.03 in 10.0 mi SSW 3.5 mph - N/A   Scattered Clouds
10:15 AM 85.3 °F 86.1 °F 62.8 °F 47% 30.04 in 10.0 mi Calm Calm - N/A   Scattered Clouds
10:35 AM 86.0 °F 86.6 °F 62.6 °F 45% 30.04 in 10.0 mi South 4.6 mph - N/A   Scattered Clouds
10:55 AM 86.2 °F 86.8 °F 62.6 °F 45% 30.05 in 10.0 mi Calm Calm - N/A   Scattered Clouds
11:15 AM 89.6 °F 90.1 °F 62.4 °F 40% 30.05 in 10.0 mi SSE 4.6 mph - N/A   Scattered Clouds
11:35 AM 91.9 °F 92.2 °F 61.5 °F 36% 30.05 in 10.0 mi South 4.6 mph - N/A   Clear
11:55 AM 92.5 °F 92.6 °F 60.8 °F 35% 30.04 in 10.0 mi South 3.5 mph - N/A   Scattered Clouds
12:15 PM 94.3 °F 94.1 °F 60.6 °F 32% 30.03 in 10.0 mi SSW 5.8 mph - N/A   Scattered Clouds
12:35 PM 95.9 °F 95.3 °F 58.8 °F 29% 30.03 in 10.0 mi SW 4.6 mph - N/A   Clear
12:55 PM 95.5 °F 94.4 °F 57.6 °F 28% 30.02 in 10.0 mi Calm Calm - N/A   Scattered Clouds
1:15 PM 96.6 °F 96.4 °F 59.2 °F 29% 30.01 in 10.0 mi SSW 5.8 mph - N/A   Scattered Clouds
1:35 PM 95.4 °F 94.9 °F 59.4 °F 30% 30.00 in 10.0 mi WSW 5.8 mph - N/A   Scattered Clouds
1:55 PM 93.4 °F 92.8 °F 59.0 °F 32% 30.00 in 10.0 mi Calm Calm - N/A   Mostly Cloudy
2:15 PM 93.7 °F 93.3 °F 59.7 °F 32% 29.98 in 10.0 mi SSW 8.1 mph - N/A   Mostly Cloudy
2:35 PM 93.4 °F 93.5 °F 60.8 °F 34% 29.98 in 10.0 mi SW 8.1 mph - N/A   Overcast
2:55 PM 97.5 °F 97.7 °F 60.3 °F 29% 29.97 in 10.0 mi SW 10.4 mph - N/A   Mostly Cloudy
3:15 PM 94.3 °F 93.7 °F 59.4 °F 31% 29.97 in 10.0 mi SE 8.1 mph - N/A   Mostly Cloudy
3:35 PM 92.8 °F 92.8 °F 60.8 °F 34% 29.96 in 10.0 mi SSE 8.1 mph - N/A   Overcast
3:55 PM 91.9 °F 91.8 °F 60.3 °F 35% 29.96 in 10.0 mi SSE 4.6 mph - N/A Rain Light Rain
4:15 PM 93.4 °F 93.2 °F 59.9 °F 33% 29.95 in 10.0 mi SSE 6.9 mph - N/A   Scattered Clouds
4:35 PM 93.0 °F 92.7 °F 59.9 °F 33% 29.94 in 10.0 mi ESE 5.8 mph - N/A   Mostly Cloudy
4:55 PM 93.7 °F 93.0 °F 59.2 °F 31% 29.95 in 10.0 mi Calm Calm - N/A   Scattered Clouds
5:15 PM 95.2 °F 95.1 °F 60.1 °F 31% 29.94 in 10.0 mi East 5.8 mph - N/A   Clear
5:35 PM 96.1 °F 95.6 °F 59.2 °F 29% 29.93 in 10.0 mi ESE 5.8 mph - N/A   Clear
5:55 PM 95.2 °F 94.7 °F 59.2 °F 30% 29.93 in 10.0 mi ESE 4.6 mph - N/A   Clear
6:15 PM 94.6 °F 94.3 °F 59.5 °F 31% 29.93 in 10.0 mi East 5.8 mph - N/A   Clear
6:35 PM 94.5 °F 94.0 °F 59.9 °F 31% 29.93 in 10.0 mi ESE 8.1 mph - N/A   Clear
6:55 PM 93.0 °F 92.7 °F 59.9 °F 33% 29.93 in 10.0 mi SSE 5.8 mph - N/A   Clear
7:15 PM 91.8 °F 91.2 °F 59.9 °F 34% 29.93 in 10.0 mi SE 3.5 mph - N/A   Clear
7:35 PM 90.3 °F 90.2 °F 60.6 °F 37% 29.93 in 10.0 mi SE 3.5 mph - N/A   Clear
7:55 PM 88.5 °F 88.3 °F 61.0 °F 39% 29.93 in 10.0 mi SE 3.5 mph - N/A   Clear
8:15 PM 87.1 °F 87.2 °F 61.2 °F 42% 29.93 in 10.0 mi ESE 3.5 mph - N/A   Clear
8:35 PM 85.3 °F 85.7 °F 61.9 °F 45% 29.94 in 10.0 mi ESE 3.5 mph - N/A   Clear
8:55 PM 85.1 °F 85.7 °F 62.4 °F 46% 29.94 in 10.0 mi ESE 3.5 mph - N/A   Clear
9:15 PM 83.7 °F 84.5 °F 62.6 °F 49% 29.95 in 10.0 mi Calm Calm - N/A   Clear
9:35 PM 82.0 °F 83.3 °F 63.1 °F 53% 29.95 in 10.0 mi Calm Calm - N/A   Clear
9:55 PM 80.8 °F 82.2 °F 63.5 °F 56% 29.96 in 10.0 mi Calm Calm - N/A   Clear
10:15 PM 80.6 °F 81.9 °F 63.3 °F 55% 29.96 in 10.0 mi Calm Calm - N/A   Clear
10:35 PM 83.1 °F 83.3 °F 60.4 °F 46% 29.97 in 10.0 mi SE 9.2 mph 19.6 mph N/A   Clear
10:55 PM 83.5 °F 83.7 °F 60.8 °F 46% 29.97 in 10.0 mi SSE 5.8 mph - N/A   Clear
11:15 PM 82.4 °F 83.0 °F 61.3 °F 49% 29.97 in 10.0 mi SSE 5.8 mph - N/A   Clear
11:35 PM 81.5 °F 82.5 °F 62.2 °F 52% 29.97 in 10.0 mi SSE 4.6 mph - N/A   Clear
11:55 PM 80.6 °F 82.0 °F 63.5 °F 56% 29.98 in 10.0 mi SSE 4.6 mph - N/A   Clear